EN

Hourly Weather Phnom Penh

Today, 12 June, Saturday

Time Temperature Precipitation Wind Pressure Humidity
00:00 +27°C° 0.8 mm 5 mps 754 mmHg 85%
01:00 +27°C° 0 mm 6 mps 754 mmHg 84%
02:00 +27°C° 0.3 mm 6 mps 754 mmHg 85%
03:00 +27°C° 0.3 mm 6 mps 754 mmHg 86%
04:00 +26°C° 0.3 mm 6 mps 753 mmHg 87%
05:00 +26°C° 0.5 mm 5 mps 754 mmHg 88%
06:00 +26°C° 0.5 mm 4 mps 754 mmHg 88%
07:00 +26°C° 0 mm 3 mps 755 mmHg 88%
08:00 +27°C° 0.3 mm 3 mps 755 mmHg 87%
09:00 +27°C° 0.3 mm 3 mps 755 mmHg 86%
10:00 +27°C° 0.3 mm 3 mps 755 mmHg 84%
11:00 +28°C° 0 mm 3 mps 755 mmHg 81%
12:00 +28°C° 0 mm 3 mps 755 mmHg 78%
13:00 +28°C° 0 mm 3 mps 754 mmHg 78%
14:00 +28°C° 0 mm 3 mps 754 mmHg 77%
15:00 +28°C° 0 mm 4 mps 753 mmHg 77%
16:00 +28°C° 0 mm 4 mps 753 mmHg 77%
17:00 +28°C° 0 mm 4 mps 753 mmHg 77%
18:00 +28°C° 0 mm 3 mps 754 mmHg 78%
19:00 +28°C° 0 mm 3 mps 754 mmHg 78%
20:00 +27°C° 0 mm 3 mps 754 mmHg 79%
21:00 +27°C° 0 mm 3 mps 755 mmHg 79%
22:00 +27°C° 0 mm 3 mps 755 mmHg 80%
23:00 +27°C° 0 mm 3 mps 755 mmHg 79%

Tomorrow, 13 June, Sunday

Time Temperature Precipitation Wind Pressure Humidity
00:00 +27°C° 0 mm 3 mps 754 mmHg 79%
01:00 +28°C° 0 mm 4 mps 754 mmHg 78%
02:00 +28°C° 0 mm 4 mps 754 mmHg 78%
03:00 +27°C° 0 mm 4 mps 754 mmHg 77%
04:00 +27°C° 0 mm 4 mps 753 mmHg 77%
05:00 +28°C° 0 mm 4 mps 754 mmHg 76%
06:00 +28°C° 0 mm 4 mps 754 mmHg 76%
07:00 +28°C° 0 mm 3 mps 755 mmHg 76%
08:00 +29°C° 0.1 mm 4 mps 755 mmHg 74%
09:00 +29°C° 0.1 mm 4 mps 755 mmHg 72%
10:00 +30°C° 0.1 mm 4 mps 756 mmHg 70%
11:00 +30°C° 0 mm 4 mps 755 mmHg 70%
12:00 +30°C° 0 mm 4 mps 755 mmHg 71%
13:00 +30°C° 0 mm 3 mps 755 mmHg 71%
14:00 +30°C° 0 mm 3 mps 754 mmHg 73%
15:00 +29°C° 0 mm 2 mps 754 mmHg 75%
16:00 +29°C° 0 mm 2 mps 753 mmHg 76%
17:00 +29°C° 0 mm 2 mps 754 mmHg 76%
18:00 +29°C° 0 mm 2 mps 754 mmHg 76%
19:00 +28°C° 0 mm 2 mps 755 mmHg 77%
20:00 +28°C° 0 mm 2 mps 755 mmHg 77%
21:00 +28°C° 0 mm 2 mps 756 mmHg 77%
22:00 +28°C° 0 mm 2 mps 756 mmHg 77%
23:00 +28°C° 0 mm 2 mps 756 mmHg 78%

Day after tomorrow, 14 June, Monday

Time Temperature Precipitation Wind Pressure Humidity
00:00 +27°C° 0 mm 2 mps 756 mmHg 79%
01:00 +27°C° 0 mm 2 mps 755 mmHg 80%
02:00 +27°C° 0 mm 2 mps 755 mmHg 80%
03:00 +27°C° 0 mm 2 mps 755 mmHg 80%
04:00 +27°C° 0 mm 2 mps 755 mmHg 80%
05:00 +28°C° 0 mm 2 mps 755 mmHg 80%
06:00 +28°C° 0 mm 2 mps 755 mmHg 80%
07:00 +28°C° 0 mm 2 mps 756 mmHg 80%
08:00 +30°C° 0 mm 3 mps 756 mmHg 72%
09:00 +33°C° 0 mm 4 mps 756 mmHg 63%
10:00 +34°C° 0 mm 5 mps 756 mmHg 55%
11:00 +35°C° 0 mm 5 mps 755 mmHg 50%
12:00 +36°C° 0 mm 5 mps 755 mmHg 46%
13:00 +37°C° 0 mm 5 mps 754 mmHg 42%
14:00 +38°C° 0 mm 6 mps 754 mmHg 42%
15:00 +38°C° 0 mm 6 mps 753 mmHg 42%
16:00 +38°C° 0 mm 6 mps 752 mmHg 42%
17:00 +35°C° 0 mm 5 mps 753 mmHg 48%
18:00 +34°C° 0 mm 5 mps 753 mmHg 54%
19:00 +32°C° 0 mm 5 mps 754 mmHg 61%
20:00 +32°C° 0 mm 5 mps 754 mmHg 64%
21:00 +30°C° 0 mm 5 mps 755 mmHg 68%
22:00 +29°C° 0 mm 4 mps 755 mmHg 71%
23:00 +29°C° 0 mm 4 mps 755 mmHg 73%

15 June, Tuesday

Time Temperature Precipitation Wind Pressure Humidity
00:00 +28°C° 0 mm 4 mps 754 mmHg 75%
01:00 +28°C° 0 mm 4 mps 754 mmHg 78%
02:00 +28°C° 0 mm 3 mps 754 mmHg 79%
03:00 +28°C° 0 mm 3 mps 754 mmHg 80%
04:00 +27°C° 0 mm 3 mps 754 mmHg 81%
05:00 +28°C° 0 mm 3 mps 754 mmHg 80%
06:00 +28°C° 0 mm 3 mps 755 mmHg 78%
07:00 +29°C° 0 mm 3 mps 755 mmHg 77%
08:00 +32°C° 0 mm 4 mps 755 mmHg 69%
09:00 +33°C° 0 mm 5 mps 755 mmHg 61%
10:00 +35°C° 0 mm 5 mps 755 mmHg 53%
11:00 +36°C° 0 mm 6 mps 755 mmHg 51%
12:00 +36°C° 0 mm 6 mps 754 mmHg 49%
13:00 +38°C° 0 mm 6 mps 754 mmHg 47%
14:00 +36°C° 0 mm 6 mps 754 mmHg 48%
15:00 +36°C° 0 mm 6 mps 753 mmHg 49%
16:00 +36°C° 0 mm 6 mps 753 mmHg 50%
17:00 +34°C° 0 mm 5 mps 753 mmHg 54%
18:00 +33°C° 0 mm 5 mps 754 mmHg 59%
19:00 +32°C° 0 mm 4 mps 754 mmHg 63%
20:00 +30°C° 0 mm 3 mps 754 mmHg 66%
21:00 +30°C° 0 mm 3 mps 755 mmHg 69%
22:00 +29°C° 0 mm 3 mps 755 mmHg 72%
23:00 +29°C° 0 mm 2 mps 755 mmHg 74%

16 June, Wednesday

Time Temperature Precipitation Wind Pressure Humidity
00:00 +28°C° 0 mm 2 mps 755 mmHg 76%
01:00 +28°C° 0 mm 2 mps 755 mmHg 78%
02:00 +28°C° 0 mm 2 mps 755 mmHg 79%
03:00 +28°C° 0 mm 2 mps 755 mmHg 80%
04:00 +28°C° 0 mm 1 mps 755 mmHg 81%
05:00 +28°C° 0 mm 2 mps 755 mmHg 80%
06:00 +28°C° 0 mm 2 mps 755 mmHg 78%
07:00 +29°C° 0 mm 2 mps 756 mmHg 77%
08:00 +31°C° 0 mm 3 mps 756 mmHg 69%
09:00 +33°C° 0 mm 4 mps 756 mmHg 61%
10:00 +35°C° 0 mm 4 mps 756 mmHg 53%
11:00 +36°C° 0 mm 4 mps 755 mmHg 50%
12:00 +37°C° 0 mm 4 mps 754 mmHg 47%
13:00 +38°C° 0 mm 4 mps 754 mmHg 44%
14:00 +37°C° 0.1 mm 4 mps 753 mmHg 47%
15:00 +36°C° 0.1 mm 4 mps 753 mmHg 51%
16:00 +35°C° 0.1 mm 4 mps 753 mmHg 55%
17:00 +34°C° 0.1 mm 4 mps 753 mmHg 59%
18:00 +33°C° 0.1 mm 5 mps 754 mmHg 63%
19:00 +32°C° 0.1 mm 5 mps 754 mmHg 67%
20:00 +30°C° 0.5 mm 4 mps 755 mmHg 70%
21:00 +30°C° 0.5 mm 4 mps 755 mmHg 73%
22:00 +29°C° 0.5 mm 3 mps 756 mmHg 76%
23:00 +29°C° 0.3 mm 3 mps 755 mmHg 78%

17 June, Thursday

Time Temperature Precipitation Wind Pressure Humidity
00:00 +28°C° 0.3 mm 3 mps 755 mmHg 80%
01:00 +28°C° 0.3 mm 2 mps 755 mmHg 81%
02:00 +28°C° 0.4 mm 2 mps 755 mmHg 82%
03:00 +28°C° 0.4 mm 2 mps 755 mmHg 82%
04:00 +28°C° 0.4 mm 1 mps 755 mmHg 83%
05:00 +28°C° 0 mm 1 mps 755 mmHg 81%
06:00 +29°C° 0 mm 1 mps 756 mmHg 79%
07:00 +29°C° 0 mm 1 mps 756 mmHg 77%
08:00 +31°C° 0 mm 1 mps 756 mmHg 70%
09:00 +32°C° 0 mm 2 mps 756 mmHg 64%
10:00 +35°C° 0 mm 3 mps 756 mmHg 57%
11:00 +35°C° 0 mm 3 mps 755 mmHg 54%
12:00 +36°C° 0 mm 4 mps 754 mmHg 51%
13:00 +37°C° 0 mm 4 mps 754 mmHg 48%
14:00 +36°C° 0.4 mm 5 mps 753 mmHg 51%
15:00 +36°C° 0.4 mm 5 mps 753 mmHg 53%
16:00 +35°C° 0.4 mm 6 mps 753 mmHg 55%
17:00 +34°C° 0.4 mm 5 mps 753 mmHg 61%
18:00 +32°C° 0.4 mm 4 mps 753 mmHg 66%
19:00 +30°C° 0.4 mm 3 mps 754 mmHg 71%
20:00 +30°C° 0.1 mm 3 mps 754 mmHg 73%
21:00 +29°C° 0.1 mm 3 mps 755 mmHg 74%
22:00 +29°C° 0.1 mm 2 mps 755 mmHg 76%
23:00 +29°C° 0.5 mm 2 mps 755 mmHg 78%
Show more